,

(GMT )
Al Udeid

Weather History for KQIR - October, 2012

Change the Weather History Date:

Wednesday, October 24, 2012

  Actual Average Record
Temperature  
Mean Temperature 84 °F -  
Max Temperature 95 °F - - ()
Min Temperature 72 °F - - ()
Cooling Degree Days 18    
Growing Degree Days 34 (Base 50)    
Moisture  
Dew Point 71 °F    
Average Humidity 67    
Maximum Humidity 85    
Minimum Humidity 40    
Precipitation  
Precipitation 0.00 in - - ()
Sea Level Pressure  
Sea Level Pressure 29.95 in    
Wind  
Wind Speed 4 mph ()    
Max Wind Speed 14 mph    
Max Gust Speed -    
Visibility 6.1 miles    
Events      
T = Trace of Precipitation, MM = Missing Value Source: Averaged Metar Reports

Daily Weather History Graph

Daily Weather History Graph

Search for Another Location

Airport or City:

Astronomy

Oct. 24, 2012 Rise Set
Actual Time 5:37 AM +03 4:59 PM +03
Civil Twilight 5:14 AM +03 5:22 PM +03
Nautical Twilight 4:47 AM +03 5:49 PM +03
Astronomical Twilight 4:20 AM +03 6:16 PM +03
Moon 1:35 PM +03 (10/24) 12:39 AM +03 (10/24)
Length of Visible Light 12h 08m
Length of Day
11h 21m
Waxing Gibbous, 73% of the Moon is Illuminated
Oct 24
Waxing Gibbous
Oct 29
Full
Nov 7
Last Quarter
Nov 14
New
Nov 20
First Quarter

Hourly Weather History & Observations

Time (+03) Temp. Heat Index Dew Point Humidity Pressure Visibility Wind Dir Wind Speed Gust Speed Precip Events Conditions
12:55 AM 81.3 °F 85.8 °F 71.8 °F 73% 29.94 in 6.2 mi NE 3.5 mph - N/A   Clear
1:55 AM 75.4 °F - 68.2 °F 78% 29.93 in 6.2 mi NNW 4.6 mph - N/A   Clear
2:55 AM 73.8 °F - 67.6 °F 81% 29.93 in 6.2 mi West 5.8 mph - N/A   Clear
3:55 AM 73.4 °F - 68.0 °F 83% 29.94 in 6.2 mi WNW 4.6 mph - N/A   Clear
4:55 AM 73.2 °F - 68.4 °F 85% 29.96 in 6.2 mi WNW 3.5 mph - N/A   Clear
5:55 AM 72.5 °F - 67.3 °F 84% 29.97 in 6.2 mi NW 4.6 mph - N/A   Clear
6:55 AM 76.3 °F - 70.0 °F 81% 29.99 in 5.0 mi Calm Calm - N/A   Haze
7:55 AM 82.9 °F 89.1 °F 73.6 °F 73% 30.00 in 6.2 mi Calm Calm - N/A   Clear
8:55 AM 87.8 °F 96.1 °F 73.8 °F 63% 30.01 in 6.2 mi SE 6.9 mph - N/A   Clear
9:55 AM 90.5 °F 97.5 °F 71.8 °F 54% 29.99 in 6.2 mi Calm Calm - N/A   Clear
10:55 AM 91.9 °F 96.9 °F 69.1 °F 47% 29.97 in 6.2 mi SSE 5.8 mph - N/A   Clear
11:55 AM 93.9 °F 97.0 °F 66.6 °F 40% 29.94 in 6.2 mi Variable 5.8 mph - N/A   Clear
12:55 PM 95.5 °F 100.0 °F 67.8 °F 40% 29.92 in 6.2 mi East 5.8 mph - N/A   Partly Cloudy
1:55 PM 92.8 °F 96.6 °F 67.5 °F 43% 29.90 in 6.2 mi NE 8.1 mph - N/A   Scattered Clouds
2:55 PM 93.0 °F 97.4 °F 68.0 °F 44% 29.90 in 6.2 mi East 6.9 mph - N/A   Partly Cloudy
3:55 PM 91.4 °F 97.3 °F 70.2 °F 50% 29.90 in 6.2 mi East 13.8 mph - N/A   Clear
4:55 PM 88.9 °F 94.7 °F 70.9 °F 55% 29.92 in 6.2 mi ESE 10.4 mph - N/A   Partly Cloudy
5:55 PM 86.5 °F 94.2 °F 73.4 °F 65% 29.92 in 6.2 mi East 6.9 mph - N/A   Clear
6:55 PM 85.1 °F 93.7 °F 75.0 °F 72% 29.95 in 6.2 mi East 5.8 mph - N/A   Clear
7:55 PM 84.2 °F 92.6 °F 75.6 °F 75% 29.96 in 6.2 mi East 3.5 mph - N/A   Clear
8:55 PM 83.1 °F 90.4 °F 75.0 °F 76% 29.96 in 6.2 mi East 4.6 mph - N/A   Clear
9:55 PM 81.9 °F 88.0 °F 74.5 °F 78% 29.96 in 6.2 mi East 3.5 mph - N/A   Clear
10:55 PM 80.6 °F 85.5 °F 73.8 °F 80% 29.96 in 6.2 mi East 4.6 mph - N/A   Clear
11:55 PM 81.1 °F 86.0 °F 73.0 °F 76% 29.94 in 6.2 mi East 4.6 mph - N/A   Clear